TimeEST,TemperatureF,Dew PointF,Humidity,Sea Level PressureIn,VisibilityMPH,Wind Direction,Wind SpeedMPH,Gust SpeedMPH,PrecipitationIn,Events,Conditions,WindDirDegrees,DateUTC
12:17 AM,46.4,44.6,93,29.47,10.0,WSW,11.5,23.0,0.01,Rain,Light Rain,250,2013-01-31 05:17:00
12:35 AM,46.4,44.6,93,29.45,10.0,WSW,12.7,23.0,0.01,Rain,Light Rain,250,2013-01-31 05:35:00
12:57 AM,46.4,44.6,93,29.45,10.0,SW,9.2,20.7,N/A,Rain,Light Rain,230,2013-01-31 05:57:00
1:17 AM,46.4,42.8,87,29.44,10.0,WSW,11.5,19.6,N/A,,Mostly Cloudy,240,2013-01-31 06:17:00
1:55 AM,42.8,39.2,87,29.48,10.0,WNW,15.0,24.2,0.01,Rain,Light Rain,290,2013-01-31 06:55:00
2:15 AM,41.0,39.2,93,29.48,10.0,West,9.2,17.3,N/A,,Overcast,270,2013-01-31 07:15:00
2:35 AM,41.0,39.2,93,29.48,10.0,West,16.1,21.9,N/A,,Overcast,270,2013-01-31 07:35:00
2:58 AM,41.0,37.4,87,29.49,10.0,West,11.5,20.7,N/A,,Overcast,280,2013-01-31 07:58:00
3:15 AM,41.0,37.4,87,29.50,10.0,WNW,16.1,31.1,N/A,,Light Drizzle,290,2013-01-31 08:15:00
3:35 AM,37.4,37.4,100,29.53,7.0,WNW,17.3,25.3,0.01,Rain,Rain,290,2013-01-31 08:35:00
3:55 AM,37.4,37.4,100,29.54,7.0,WNW,12.7,24.2,0.01,Rain,Rain,290,2013-01-31 08:55:00
4:17 AM,35.6,35.6,100,29.56,4.0,WNW,16.1,28.8,N/A,Snow,Light Snow,290,2013-01-31 09:17:00
4:37 AM,35.6,33.8,93,29.58,10.0,WNW,18.4,28.8,N/A,,Overcast,290,2013-01-31 09:37:00
4:57 AM,35.6,32.0,87,29.60,5.0,West,17.3,29.9,N/A,Snow,Light Snow,280,2013-01-31 09:57:00
5:35 AM,35.6,28.4,75,29.63,10.0,West,11.5,24.2,N/A,,Overcast,280,2013-01-31 10:35:00
5:55 AM,33.8,30.2,87,29.64,7.0,West,11.5,18.4,N/A,Snow,Light Snow,280,2013-01-31 10:55:00
6:35 AM,32.0,30.2,93,29.66,2.0,WNW,15.0,25.3,N/A,Snow,Light Snow,290,2013-01-31 11:35:00
7:55 AM,32.0,26.6,80,29.70,10.0,West,12.7,19.6,N/A,Snow,Light Snow,280,2013-01-31 12:55:00
8:18 AM,32.0,24.8,75,29.71,10.0,West,10.4,29.9,N/A,,Overcast,280,2013-01-31 13:18:00
8:38 AM,32.0,23.0,69,29.74,10.0,WNW,18.4,25.3,N/A,,Overcast,290,2013-01-31 13:38:00
8:58 AM,32.0,21.2,64,29.76,10.0,West,17.3,29.9,N/A,,Overcast,280,2013-01-31 13:58:00
9:17 AM,33.8,23.0,65,29.76,10.0,West,12.7,20.7,N/A,,Overcast,280,2013-01-31 14:17:00
9:35 AM,32.0,24.8,75,29.77,10.0,West,12.7,31.1,N/A,,Overcast,280,2013-01-31 14:35:00
9:57 AM,33.8,26.6,75,29.77,5.0,West,13.8,24.2,N/A,Snow,Light Snow,260,2013-01-31 14:57:00
10:37 AM,33.8,23.0,65,29.80,10.0,West,18.4,27.6,N/A,,Overcast,260,2013-01-31 15:37:00
11:17 AM,35.6,24.8,65,29.82,10.0,West,11.5,31.1,N/A,,Overcast,260,2013-01-31 16:17:00
11:35 AM,33.8,21.2,60,29.82,10.0,West,12.7,29.9,N/A,,Overcast,280,2013-01-31 16:35:00
11:57 AM,33.8,21.2,60,29.81,10.0,WNW,19.6,27.6,N/A,,Mostly Cloudy,290,2013-01-31 16:57:00
12:18 PM,35.6,21.2,56,29.80,10.0,West,19.6,33.4,N/A,,Mostly Cloudy,280,2013-01-31 17:18:00
12:38 PM,35.6,21.2,56,29.80,10.0,West,16.1,27.6,N/A,,Overcast,280,2013-01-31 17:38:00
12:55 PM,33.8,23.0,65,29.80,10.0,WNW,15.0,26.5,N/A,,Overcast,300,2013-01-31 17:55:00
1:17 PM,33.8,23.0,65,29.81,10.0,West,12.7,25.3,N/A,,Overcast,280,2013-01-31 18:17:00
1:35 PM,33.8,23.0,65,29.81,10.0,West,15.0,27.6,N/A,,Overcast,280,2013-01-31 18:35:00
1:57 PM,33.8,24.8,70,29.83,10.0,West,16.1,25.3,N/A,,Overcast,280,2013-01-31 18:57:00
2:35 PM,33.8,21.2,60,29.83,10.0,West,13.8,27.6,N/A,,Overcast,270,2013-01-31 19:35:00
3:15 PM,33.8,21.2,60,29.84,10.0,West,11.5,20.7,N/A,,Overcast,260,2013-01-31 20:15:00
3:38 PM,33.8,21.2,60,29.85,10.0,West,12.7,28.8,N/A,,Overcast,280,2013-01-31 20:38:00
3:55 PM,33.8,21.2,60,29.85,10.0,West,18.4,28.8,N/A,,Overcast,260,2013-01-31 20:55:00
4:15 PM,33.8,23.0,65,29.86,10.0,West,16.1,25.3,N/A,,Overcast,260,2013-01-31 21:15:00
4:35 PM,33.8,23.0,65,29.86,10.0,West,15.0,26.5,N/A,Snow,Light Snow,270,2013-01-31 21:35:00
4:55 PM,32.0,21.2,64,29.87,10.0,West,13.8,24.2,N/A,Snow,Light Snow,280,2013-01-31 21:55:00
5:19 PM,32.0,23.0,69,29.87,10.0,WNW,9.2,20.7,N/A,,Overcast,290,2013-01-31 22:19:00
5:39 PM,32.0,23.0,69,29.87,10.0,WNW,8.1,17.3,N/A,,Scattered Clouds,290,2013-01-31 22:39:00
5:55 PM,30.2,21.2,69,29.88,10.0,WNW,9.2,-,N/A,,Scattered Clouds,290,2013-01-31 22:55:00
6:15 PM,30.2,21.2,69,29.89,10.0,West,12.7,23.0,N/A,,Scattered Clouds,280,2013-01-31 23:15:00
6:37 PM,30.2,21.2,69,29.89,10.0,WNW,9.2,24.2,N/A,,Mostly Cloudy,290,2013-01-31 23:37:00
6:57 PM,30.2,21.2,69,29.88,10.0,West,12.7,21.9,N/A,,Scattered Clouds,280,2013-01-31 23:57:00
7:37 PM,30.2,21.2,69,29.89,10.0,West,10.4,17.3,N/A,,Scattered Clouds,280,2013-02-01 00:37:00
7:55 PM,30.2,21.2,69,29.89,10.0,WNW,9.2,17.3,N/A,,Clear,290,2013-02-01 00:55:00
8:17 PM,30.2,21.2,69,29.89,10.0,West,9.2,-,N/A,,Clear,280,2013-02-01 01:17:00
8:37 PM,30.2,23.0,75,29.88,10.0,West,6.9,20.7,N/A,,Clear,280,2013-02-01 01:37:00
9:17 PM,30.2,23.0,75,29.88,10.0,West,10.4,16.1,N/A,,Clear,260,2013-02-01 02:17:00
9:35 PM,32.0,23.0,69,29.89,10.0,West,9.2,-,N/A,,Clear,270,2013-02-01 02:35:00
10:15 PM,32.0,23.0,69,29.89,10.0,West,5.8,-,N/A,,Clear,260,2013-02-01 03:15:00
10:37 PM,32.0,23.0,69,29.88,10.0,West,6.9,-,N/A,,Clear,260,2013-02-01 03:37:00
10:58 PM,33.8,24.8,70,29.87,10.0,WSW,6.9,-,N/A,,Clear,250,2013-02-01 03:58:00
11:17 PM,33.8,24.8,70,29.87,10.0,WSW,6.9,-,N/A,,Clear,240,2013-02-01 04:17:00
11:57 PM,33.8,24.8,70,29.85,10.0,WSW,5.8,-,N/A,,Clear,240,2013-02-01 04:57:00